TimePDT,TemperatureF,Dew PointF,Humidity,Sea Level PressureIn,VisibilityMPH,Wind Direction,Wind SpeedMPH,Gust SpeedMPH,PrecipitationIn,Events,Conditions,WindDirDegrees,DateUTC
12:58 AM,38.3,37.4,97,30.23,10.0,WNW,1.2,-,N/A,,Clear,290,2013-03-10 08:58:00
1:58 AM,37.6,37.6,100,30.21,10.0,Calm,Calm,-,N/A,,Clear,0,2013-03-10 09:58:00
4:58 AM,35.8,35.8,100,30.22,10.0,Calm,Calm,-,N/A,,Clear,0,2013-03-10 11:58:00
5:58 AM,35.4,35.4,100,30.23,10.0,East,3.5,-,N/A,,Clear,80,2013-03-10 12:58:00
6:58 AM,36.9,36.9,100,30.23,10.0,Calm,Calm,-,N/A,,Clear,0,2013-03-10 13:58:00
7:58 AM,39.2,39.0,99,30.25,10.0,Calm,Calm,-,N/A,,Clear,0,2013-03-10 14:58:00
8:58 AM,45.5,45.5,100,30.27,10.0,SSE,4.6,-,N/A,,Clear,150,2013-03-10 15:58:00
9:58 AM,50.9,46.8,86,30.27,10.0,South,5.8,-,N/A,,Clear,180,2013-03-10 16:58:00
10:58 AM,58.5,45.5,62,30.26,10.0,ESE,5.8,-,N/A,,Clear,120,2013-03-10 17:58:00
11:58 AM,63.3,41.7,45,30.24,10.0,Variable,1.2,-,N/A,,Clear,0,2013-03-10 18:58:00
12:58 PM,66.7,39.6,37,30.22,10.0,NNE,2.3,-,N/A,,Clear,20,2013-03-10 19:58:00
1:58 PM,69.3,35.2,29,30.19,10.0,North,16.1,18.4,N/A,,Clear,350,2013-03-10 20:58:00
2:58 PM,70.5,36.9,29,30.16,10.0,WNW,15.0,-,N/A,,Clear,300,2013-03-10 21:58:00
3:58 PM,71.4,37.4,29,30.16,10.0,NW,13.8,-,N/A,,Clear,320,2013-03-10 22:58:00
4:58 PM,69.4,37.6,31,30.15,10.0,WNW,15.0,-,N/A,,Clear,300,2013-03-10 23:58:00
5:58 PM,66.4,39.7,38,30.16,10.0,WNW,11.5,-,N/A,,Clear,290,2013-03-11 00:58:00
6:58 PM,60.1,37.0,42,30.18,10.0,WNW,10.4,-,N/A,,Partly Cloudy,290,2013-03-11 01:58:00
7:58 PM,53.2,38.5,57,30.18,10.0,NW,5.8,-,N/A,,Clear,310,2013-03-11 02:58:00
8:58 PM,47.5,37.4,68,30.19,10.0,Calm,Calm,-,N/A,,Clear,0,2013-03-11 03:58:00
9:58 PM,50.9,36.9,59,30.20,10.0,Calm,Calm,-,N/A,,Clear,0,2013-03-11 04:58:00
10:58 PM,43.9,36.7,76,30.20,10.0,NW,2.3,-,N/A,,Clear,310,2013-03-11 05:58:00
11:58 PM,42.4,36.0,78,30.20,10.0,Calm,Calm,-,N/A,,Clear,0,2013-03-11 06:58:00
12:58 AM,37.8,33.4,84,30.20,10.0,Calm,Calm,-,N/A,,Clear,0,2013-03-11 07:58:00